Location: Tucson
(32.2217°N, 110.9265°W)
Time: 18:52:21
(UTC-07:00)

ISS - Pass Details

Date: 02 October 2021
Orbit: 417 x 423 km, 51.6° (Epoch: 22 October)

Event Time Altitude Azimuth Distance (km) Brightness Sun altitude
Rises 19:52:07 0° 326° (NNW) 2,360 0.7 -23.1°
Reaches altitude 10° 19:54:31 10° 342° (NNW) 1,495 -0.6 -23.6°
Enters shadow 19:55:17 14° 352° (N) 1,258 -1.2 -23.7°
